Doha, Qatar

9:19 PM +03 on April 28, 2017 (GMT +0300)
Doha International

Weather History for OTBD - November, 2011

Change the Weather History Date:

Tuesday, November 8, 2011

  Actual Average Record
Temperature  
Mean Temperature 72 °F -  
Max Temperature 77 °F 82 °F 95 °F (1999)
Min Temperature 67 °F 65 °F 64 °F (1996)
Cooling Degree Days 7    
Growing Degree Days 22 (Base 50)    
Moisture  
Dew Point 50 °F    
Average Humidity 46    
Maximum Humidity 60    
Minimum Humidity 29    
Precipitation  
Precipitation 0.00 in 0.01 in - ()
Sea Level Pressure  
Sea Level Pressure 30.03 in    
Wind  
Wind Speed 10 mph ()    
Max Wind Speed 17 mph    
Max Gust Speed 30 mph    
Visibility 7.9 miles    
Events      
Averages and records for this station are not official NWS values.
T = Trace of Precipitation, MM = Missing Value Source: Averaged Metar Reports

Daily Weather History Graph

Daily Weather History Graph

Search for Another Location

Airport or City:

Trip Planner

Search our weather history database for the weather conditions in past years. The results will help you decide how hot, cold, wet, or windy it might be!

Date:

Astronomy

Nov. 08, 2011 Rise Set
Actual Time 5:45 AM +03 4:49 PM +03
Civil Twilight 5:21 AM +03 5:12 PM +03
Nautical Twilight 4:54 AM +03 5:40 PM +03
Astronomical Twilight 4:27 AM +03 6:07 PM +03
Moon 3:10 PM +03 (11/8) 3:31 AM +03 (11/8)
Length of Visible Light 11h 51m
Length of Day
11h 03m
Waxing Gibbous, 95% of the Moon is Illuminated
Nov 8
Waxing Gibbous
Nov 10
Full
Nov 18
Last Quarter
Nov 25
New
Dec 2
First Quarter

Hourly Weather History & Observations

Time (+03) Temp. Dew Point Humidity Pressure Visibility Wind Dir Wind Speed Gust Speed Precip Events Conditions
12:00 AM 69.8 °F 55.4 °F 60% 29.98 in - NW 9.2 mph - N/A   Clear
12:30 AM 69.8 °F 55.4 °F 60% 29.98 in - NW 11.5 mph - N/A   Clear
1:00 AM 69.8 °F 55.4 °F 60% 29.98 in - NW 9.2 mph - N/A   Clear
1:30 AM 69.8 °F 53.6 °F 56% 30.01 in - WNW 8.1 mph - N/A   Clear
2:00 AM 69.8 °F 51.8 °F 53% 30.01 in - NW 9.2 mph - N/A   Clear
2:30 AM 68.0 °F 51.8 °F 56% 30.01 in - NW 9.2 mph - N/A   Clear
3:00 AM 68 °F 50 °F 42% 30.01 in 11 mi NW 11.5 mph - -  
3:00 AM 68.0 °F 50.0 °F 52% 30.01 in - NW 11.5 mph - N/A   Clear
3:30 AM 68.0 °F 50.0 °F 52% 30.01 in - NW 9.2 mph - N/A   Clear
4:00 AM 68.0 °F 50.0 °F 52% 30.01 in - NW 10.4 mph - N/A   Clear
4:30 AM 68.0 °F 50.0 °F 52% 30.01 in - NW 9.2 mph - N/A   Clear
5:00 AM 68.0 °F 48.2 °F 49% 30.01 in - NW 10.4 mph - N/A   Clear
5:30 AM 68.0 °F 48.2 °F 49% 30.01 in 6.2 mi NW 9.2 mph - N/A   Partly Cloudy
6:00 AM 68.0 °F 46.4 °F 46% 30.04 in 6.2 mi NW 10.4 mph - N/A   Partly Cloudy
6:30 AM 68.0 °F 46.4 °F 46% 30.04 in - NW 11.5 mph - N/A   Clear
7:00 AM 68.0 °F 46.4 °F 46% 30.04 in - NW 12.7 mph - N/A   Clear
7:30 AM 69.8 °F 46.4 °F 43% 30.06 in - NW 12.7 mph - N/A   Clear
8:00 AM 71.6 °F 48.2 °F 43% 30.06 in - NW 13.8 mph - N/A   Clear
8:30 AM 71.6 °F 46.4 °F 41% 30.06 in - NW 12.7 mph - N/A   Clear
9:00 AM 73 °F 47 °F 29% 30.10 in 10 mi NW 11.5 mph - -  
9:00 AM 73.4 °F 46.4 °F 38% 30.09 in - NW 11.5 mph - N/A   Clear
9:30 AM 73.4 °F 46.4 °F 38% 30.09 in - NW 11.5 mph - N/A   Clear
10:00 AM 73.4 °F 46.4 °F 38% 30.09 in - NW 11.5 mph - N/A   Clear
10:30 AM 75.2 °F 48.2 °F 38% 30.06 in - NW 11.5 mph - N/A   Clear
11:00 AM 75.2 °F 50.0 °F 41% 30.06 in - NW 10.4 mph - N/A   Clear
11:30 AM 77.0 °F 50.0 °F 39% 30.04 in - NW 12.7 mph - N/A   Clear
12:00 PM 77.0 °F 50.0 °F 39% 30.04 in - NNW 15.0 mph - N/A   Clear
12:30 PM 77.0 °F 51.8 °F 41% 30.04 in - NW 11.5 mph - N/A   Clear
1:00 PM 77.0 °F 51.8 °F 41% 30.01 in - NW 15.0 mph - N/A   Clear
1:30 PM 77.0 °F 51.8 °F 41% 29.98 in 6.2 mi NNW 17.3 mph - N/A   Partly Cloudy
2:00 PM 77.0 °F 50.0 °F 39% 29.98 in 6.2 mi NW 15.0 mph - N/A   Partly Cloudy
2:30 PM 77.0 °F 51.8 °F 41% 29.98 in 6.2 mi NNW 16.1 mph 29.9 mph N/A   Partly Cloudy
3:00 PM 77 °F 52 °F 31% 29.99 in 10 mi NW 16.1 mph - -  
3:00 PM 77.0 °F 51.8 °F 41% 29.98 in - NW 16.1 mph - N/A   Clear
3:30 PM 75.2 °F 51.8 °F 44% 29.98 in - NW 15.0 mph - N/A   Clear
4:00 PM 75.2 °F 53.6 °F 47% 30.01 in - NW 13.8 mph - N/A   Clear
4:30 PM 73.4 °F 51.8 °F 47% 30.01 in - NNW 12.7 mph - N/A   Clear
5:00 PM 73.4 °F 51.8 °F 47% 30.01 in - NW 12.7 mph - N/A   Clear
5:30 PM 71.6 °F 50.0 °F 46% 30.04 in - NW 12.7 mph - N/A   Clear
6:00 PM 71.6 °F 48.2 °F 43% 30.04 in - NW 12.7 mph - N/A   Clear
6:30 PM 71.6 °F 48.2 °F 43% 30.04 in - NW 11.5 mph - N/A   Clear
7:00 PM 71.6 °F 48.2 °F 43% 30.04 in - NW 10.4 mph - N/A   Clear
7:30 PM 69.8 °F 50.0 °F 49% 30.06 in - NW 10.4 mph - N/A   Clear
8:00 PM 69.8 °F 50.0 °F 49% 30.06 in - NW 10.4 mph - N/A   Clear
8:30 PM 69.8 °F 50.0 °F 49% 30.06 in - NW 11.5 mph - N/A   Clear
9:00 PM 70 °F 51 °F 39% 30.07 in 9 mi WNW 10.4 mph - -  
9:00 PM 69.8 °F 50.0 °F 49% 30.06 in - WNW 10.4 mph - N/A   Clear
9:30 PM 69.8 °F 51.8 °F 53% 30.06 in - WNW 11.5 mph - N/A   Clear
10:00 PM 69.8 °F 50.0 °F 49% 30.06 in - WNW 9.2 mph - N/A   Clear
10:30 PM 69.8 °F 50.0 °F 49% 30.06 in - WNW 8.1 mph - N/A   Clear
11:00 PM 69.8 °F 48.2 °F 46% 30.06 in - WNW 6.9 mph - N/A   Clear
11:30 PM 68.0 °F 46.4 °F 46% 30.06 in - WNW 5.8 mph - N/A   Clear